TimeCDT,TemperatureF,Dew PointF,Humidity,Sea Level PressureIn,VisibilityMPH,Wind Direction,Wind SpeedMPH,Gust SpeedMPH,PrecipitationIn,Events,Conditions,WindDirDegrees,DateUTC
12:15 AM,64.8,63.1,94,29.83,5.0,Calm,Calm,-,N/A,,Clear,0,2013-09-01 05:15:00
12:35 AM,64.6,62.8,94,29.83,7.0,Calm,Calm,-,N/A,,Clear,0,2013-09-01 05:35:00
12:55 AM,63.5,61.7,94,29.83,7.0,Calm,Calm,-,N/A,,Clear,0,2013-09-01 05:55:00
1:15 AM,63.0,61.7,96,29.83,7.0,Calm,Calm,-,N/A,,Clear,0,2013-09-01 06:15:00
1:35 AM,62.2,60.8,95,29.83,7.0,Calm,Calm,-,N/A,,Clear,0,2013-09-01 06:35:00
1:55 AM,62.1,60.6,95,29.82,7.0,Calm,Calm,-,N/A,,Clear,0,2013-09-01 06:55:00
2:15 AM,62.2,60.8,95,29.83,7.0,Calm,Calm,-,N/A,,Clear,0,2013-09-01 07:15:00
2:35 AM,62.4,61.0,95,29.83,7.0,Calm,Calm,-,N/A,,Clear,0,2013-09-01 07:35:00
2:55 AM,61.7,60.4,96,29.82,7.0,Calm,Calm,-,N/A,,Clear,0,2013-09-01 07:55:00
3:15 AM,60.6,59.2,95,29.83,5.0,Calm,Calm,-,N/A,,Clear,0,2013-09-01 08:15:00
3:35 AM,60.8,59.4,95,29.81,5.0,Calm,Calm,-,N/A,,Clear,0,2013-09-01 08:35:00
3:55 AM,59.9,58.8,96,29.81,5.0,Calm,Calm,-,N/A,,Clear,0,2013-09-01 08:55:00
4:15 AM,59.2,58.1,96,29.79,4.0,Calm,Calm,-,N/A,,Scattered Clouds,0,2013-09-01 09:15:00
4:35 AM,59.4,58.3,96,29.79,0.8,Calm,Calm,-,N/A,,Overcast,0,2013-09-01 09:35:00
4:55 AM,58.5,57.4,96,29.80,0.5,Calm,Calm,-,N/A,Fog,Fog,0,2013-09-01 09:55:00
5:15 AM,58.5,57.4,96,29.80,0.5,Calm,Calm,-,N/A,Fog,Fog,0,2013-09-01 10:15:00
5:35 AM,58.3,57.2,96,29.80,1.0,Calm,Calm,-,N/A,,Overcast,0,2013-09-01 10:35:00
5:55 AM,58.5,57.4,96,29.81,0.5,Calm,Calm,-,N/A,Fog,Fog,0,2013-09-01 10:55:00
6:15 AM,59.2,58.1,96,29.82,2.0,Calm,Calm,-,N/A,,Overcast,0,2013-09-01 11:15:00
6:35 AM,59.5,58.5,96,29.82,0.2,Calm,Calm,-,N/A,Fog,Fog,0,2013-09-01 11:35:00
6:55 AM,59.4,58.3,96,29.82,0.2,Calm,Calm,-,N/A,Fog,Fog,0,2013-09-01 11:55:00
7:15 AM,59.9,59.0,97,29.81,0.2,Calm,Calm,-,N/A,Fog,Fog,0,2013-09-01 12:15:00
7:35 AM,60.3,59.2,96,29.81,0.2,Calm,Calm,-,N/A,Fog,Fog,0,2013-09-01 12:35:00
7:55 AM,61.5,60.4,96,29.80,0.2,Calm,Calm,-,N/A,Fog,Fog,0,2013-09-01 12:55:00
8:15 AM,63.1,62.1,96,29.81,0.8,Calm,Calm,-,N/A,,Overcast,0,2013-09-01 13:15:00
8:35 AM,64.4,63.5,97,29.82,1.0,Calm,Calm,-,N/A,,Overcast,0,2013-09-01 13:35:00
8:55 AM,66.0,64.9,96,29.83,3.0,Calm,Calm,-,N/A,,Mostly Cloudy,0,2013-09-01 13:55:00
9:15 AM,66.6,65.5,96,29.82,4.0,WSW,3.5,-,N/A,,Scattered Clouds,240,2013-09-01 14:15:00
9:35 AM,68.2,66.9,96,29.82,7.0,Calm,Calm,-,N/A,,Clear,0,2013-09-01 14:35:00
9:55 AM,70.3,66.9,89,29.82,10.0,Calm,Calm,-,N/A,,Clear,0,2013-09-01 14:55:00
10:15 AM,72.5,68.0,86,29.83,10.0,WNW,4.6,-,N/A,,Scattered Clouds,290,2013-09-01 15:15:00
10:35 AM,74.8,68.4,80,29.83,10.0,NW,5.8,-,N/A,,Mostly Cloudy,310,2013-09-01 15:35:00
10:55 AM,75.7,68.5,78,29.82,10.0,WNW,6.9,-,N/A,,Scattered Clouds,300,2013-09-01 15:55:00
11:15 AM,75.7,68.5,78,29.81,10.0,NW,3.5,-,N/A,,Scattered Clouds,320,2013-09-01 16:15:00
11:35 AM,76.1,68.9,78,29.81,10.0,Calm,Calm,-,N/A,,Mostly Cloudy,0,2013-09-01 16:35:00
11:55 AM,77.9,69.3,75,29.80,10.0,Calm,Calm,-,N/A,,Scattered Clouds,0,2013-09-01 16:55:00
12:15 PM,78.3,69.4,74,29.80,10.0,Calm,Calm,-,N/A,,Mostly Cloudy,0,2013-09-01 17:15:00
12:35 PM,78.6,69.4,73,29.79,10.0,Calm,Calm,-,N/A,,Mostly Cloudy,0,2013-09-01 17:35:00
12:55 PM,79.5,70.2,73,29.79,10.0,Calm,Calm,-,N/A,,Scattered Clouds,0,2013-09-01 17:55:00
1:15 PM,79.5,70.2,73,29.79,10.0,Calm,Calm,-,N/A,,Mostly Cloudy,0,2013-09-01 18:15:00
1:35 PM,80.8,70.5,71,29.79,10.0,SE,3.5,-,N/A,,Scattered Clouds,140,2013-09-01 18:35:00
1:55 PM,81.5,70.2,68,29.78,10.0,Calm,Calm,-,N/A,,Clear,0,2013-09-01 18:55:00
2:15 PM,82.2,70.5,68,29.78,10.0,Calm,Calm,-,N/A,,Clear,0,2013-09-01 19:15:00
2:35 PM,80.6,71.1,73,29.77,10.0,SW,4.6,-,N/A,Rain,Rain,220,2013-09-01 19:35:00
2:55 PM,79.5,72.1,78,29.77,10.0,Calm,Calm,-,N/A,Rain-Thunderstorm,Light Thunderstorms and Rain,0,2013-09-01 19:55:00
3:15 PM,79.0,73.2,82,29.77,10.0,Calm,Calm,-,N/A,,Scattered Clouds,0,2013-09-01 20:15:00
3:35 PM,77.5,72.7,85,29.77,10.0,SSE,9.2,-,N/A,,Scattered Clouds,160,2013-09-01 20:35:00
3:55 PM,79.0,71.8,78,29.77,10.0,South,6.9,16.1,N/A,,Scattered Clouds,170,2013-09-01 20:55:00
4:15 PM,80.2,72.0,76,29.76,10.0,SSE,5.8,-,N/A,,Scattered Clouds,150,2013-09-01 21:15:00
4:35 PM,80.4,70.5,72,29.75,10.0,SSE,4.6,-,N/A,,Clear,160,2013-09-01 21:35:00
4:55 PM,80.4,71.1,73,29.76,10.0,SSE,8.1,-,N/A,,Clear,160,2013-09-01 21:55:00
5:15 PM,80.4,72.3,76,29.76,10.0,SSE,4.6,-,N/A,,Scattered Clouds,160,2013-09-01 22:15:00
5:35 PM,80.2,73.2,79,29.76,10.0,Calm,Calm,-,N/A,,Scattered Clouds,0,2013-09-01 22:35:00
5:55 PM,80.1,73.8,81,29.76,10.0,Calm,Calm,-,N/A,,Scattered Clouds,0,2013-09-01 22:55:00
6:15 PM,79.7,73.6,81,29.76,10.0,Calm,Calm,-,N/A,Thunderstorm,Unknown,0,2013-09-01 23:15:00
6:35 PM,78.6,73.6,84,29.76,10.0,Calm,Calm,-,N/A,,Scattered Clouds,0,2013-09-01 23:35:00
6:55 PM,77.0,72.0,84,29.76,10.0,Calm,Calm,-,N/A,,Scattered Clouds,0,2013-09-01 23:55:00
7:15 PM,75.9,71.8,87,29.76,10.0,Calm,Calm,-,N/A,,Scattered Clouds,0,2013-09-02 00:15:00
7:35 PM,75.6,70.9,85,29.77,10.0,NW,4.6,-,N/A,,Mostly Cloudy,310,2013-09-02 00:35:00
7:55 PM,76.1,70.7,83,29.78,10.0,NW,4.6,-,N/A,,Mostly Cloudy,320,2013-09-02 00:55:00
8:15 PM,76.1,67.6,75,29.79,10.0,NW,6.9,-,N/A,,Overcast,310,2013-09-02 01:15:00
8:35 PM,75.7,65.5,70,29.80,10.0,NW,5.8,-,N/A,,Overcast,310,2013-09-02 01:35:00
8:55 PM,75.2,64.4,69,29.81,10.0,NW,5.8,-,N/A,,Overcast,310,2013-09-02 01:55:00
9:15 PM,74.1,63.5,69,29.82,10.0,NW,4.6,-,N/A,,Mostly Cloudy,320,2013-09-02 02:15:00
9:35 PM,73.4,63.1,70,29.83,10.0,NW,6.9,-,N/A,,Mostly Cloudy,320,2013-09-02 02:35:00
9:55 PM,73.0,62.1,68,29.83,10.0,NNW,8.1,-,N/A,,Overcast,330,2013-09-02 02:55:00
10:15 PM,72.1,61.5,69,29.83,10.0,NNW,8.1,-,N/A,,Mostly Cloudy,330,2013-09-02 03:15:00
10:35 PM,71.6,61.0,69,29.84,10.0,NNW,9.2,-,N/A,,Mostly Cloudy,340,2013-09-02 03:35:00
10:55 PM,71.1,60.8,70,29.84,10.0,NNW,6.9,-,N/A,,Overcast,340,2013-09-02 03:55:00
11:15 PM,69.6,61.2,74,29.85,10.0,NNW,5.8,-,N/A,,Mostly Cloudy,340,2013-09-02 04:15:00
11:35 PM,68.0,61.7,80,29.85,10.0,NNW,4.6,-,N/A,,Scattered Clouds,340,2013-09-02 04:35:00
11:55 PM,66.6,61.3,83,29.86,10.0,NW,4.6,-,N/A,,Mostly Cloudy,310,2013-09-02 04:55:00